Météo par heure à Juankoski

Ce jour, 20 Juin, Dimanche

Heure Température Précipitation Vent Pression Humidité
00:00 +15°C° 0 mm 2 m/s 752 mmHg 91%
01:00 +15°C° 0 mm 2 m/s 752 mmHg 92%
02:00 +15°C° 0 mm 2 m/s 752 mmHg 93%
03:00 +16°C° 0 mm 2 m/s 751 mmHg 91%
04:00 +17°C° 0 mm 2 m/s 751 mmHg 89%
05:00 +18°C° 0 mm 2 m/s 751 mmHg 87%
06:00 +20°C° 0 mm 3 m/s 751 mmHg 77%
07:00 +22°C° 0 mm 3 m/s 751 mmHg 67%
08:00 +25°C° 0 mm 4 m/s 751 mmHg 57%
09:00 +26°C° 0 mm 4 m/s 751 mmHg 52%
10:00 +28°C° 0 mm 4 m/s 750 mmHg 46%
11:00 +29°C° 0 mm 5 m/s 750 mmHg 40%
12:00 +30°C° 0 mm 5 m/s 750 mmHg 39%
13:00 +30°C° 0 mm 5 m/s 750 mmHg 39%
14:00 +32°C° 0 mm 5 m/s 750 mmHg 38%
15:00 +30°C° 0 mm 4 m/s 750 mmHg 41%
16:00 +29°C° 0 mm 4 m/s 749 mmHg 44%
17:00 +29°C° 0 mm 3 m/s 749 mmHg 47%
18:00 +28°C° 0 mm 3 m/s 749 mmHg 53%
19:00 +26°C° 0 mm 2 m/s 750 mmHg 59%
20:00 +25°C° 0 mm 2 m/s 750 mmHg 64%
21:00 +23°C° 0 mm 2 m/s 750 mmHg 73%
22:00 +22°C° 0 mm 1 m/s 750 mmHg 81%
23:00 +20°C° 0 mm 1 m/s 751 mmHg 89%

Demain, 21 Juin, Lundi

Heure Température Précipitation Vent Pression Humidité
00:00 +19°C° 0 mm 1 m/s 751 mmHg 91%
01:00 +19°C° 0 mm 1 m/s 751 mmHg 92%
02:00 +18°C° 0 mm 1 m/s 751 mmHg 93%
03:00 +19°C° 0 mm 1 m/s 751 mmHg 89%
04:00 +20°C° 0 mm 1 m/s 751 mmHg 85%
05:00 +20°C° 0 mm 2 m/s 751 mmHg 81%
06:00 +23°C° 0 mm 2 m/s 751 mmHg 74%
07:00 +25°C° 0 mm 3 m/s 751 mmHg 66%
08:00 +27°C° 0 mm 3 m/s 751 mmHg 58%
09:00 +28°C° 0 mm 4 m/s 751 mmHg 53%
10:00 +29°C° 0 mm 5 m/s 751 mmHg 48%
11:00 +32°C° 0 mm 5 m/s 751 mmHg 44%
12:00 +30°C° 0.1 mm 5 m/s 750 mmHg 45%
13:00 +30°C° 0.1 mm 5 m/s 750 mmHg 47%
14:00 +30°C° 0.1 mm 5 m/s 750 mmHg 49%
15:00 +30°C° 0 mm 5 m/s 750 mmHg 49%
16:00 +30°C° 0 mm 5 m/s 750 mmHg 49%
17:00 +30°C° 0 mm 4 m/s 750 mmHg 49%
18:00 +29°C° 0 mm 4 m/s 750 mmHg 53%
19:00 +28°C° 0 mm 4 m/s 750 mmHg 57%
20:00 +27°C° 0 mm 3 m/s 750 mmHg 61%
21:00 +25°C° 0.3 mm 3 m/s 750 mmHg 69%
22:00 +24°C° 0.3 mm 3 m/s 750 mmHg 77%
23:00 +21°C° 0.3 mm 2 m/s 751 mmHg 85%

Après-demain, 22 Juin, Mardi

Heure Température Précipitation Vent Pression Humidité
00:00 +21°C° 0 mm 2 m/s 751 mmHg 87%
01:00 +20°C° 0 mm 2 m/s 751 mmHg 89%
02:00 +19°C° 0 mm 2 m/s 751 mmHg 91%
03:00 +21°C° 0 mm 1 m/s 752 mmHg 90%
04:00 +21°C° 0 mm 1 m/s 752 mmHg 89%
05:00 +22°C° 0 mm 1 m/s 752 mmHg 87%
06:00 +24°C° 0 mm 1 m/s 752 mmHg 79%
07:00 +25°C° 0 mm 2 m/s 752 mmHg 71%
08:00 +27°C° 0 mm 2 m/s 752 mmHg 63%
09:00 +29°C° 0 mm 3 m/s 752 mmHg 56%
10:00 +30°C° 0 mm 3 m/s 751 mmHg 50%
11:00 +33°C° 0 mm 4 m/s 751 mmHg 43%
12:00 +33°C° 0 mm 4 m/s 751 mmHg 41%
13:00 +34°C° 0 mm 5 m/s 751 mmHg 38%
14:00 +34°C° 0 mm 6 m/s 750 mmHg 36%
15:00 +34°C° 0 mm 5 m/s 750 mmHg 36%
16:00 +33°C° 0 mm 5 m/s 750 mmHg 36%
17:00 +33°C° 0 mm 5 m/s 749 mmHg 36%
18:00 +32°C° 0 mm 5 m/s 749 mmHg 41%
19:00 +29°C° 0 mm 4 m/s 749 mmHg 45%
20:00 +28°C° 0 mm 3 m/s 749 mmHg 50%
21:00 +26°C° 0.1 mm 3 m/s 749 mmHg 59%
22:00 +24°C° 0.1 mm 2 m/s 749 mmHg 67%
23:00 +21°C° 0.1 mm 2 m/s 749 mmHg 75%

23 Juin, Mercredi

Heure Température Précipitation Vent Pression Humidité
00:00 +21°C° 0 mm 2 m/s 749 mmHg 78%
01:00 +20°C° 0 mm 2 m/s 749 mmHg 82%
02:00 +20°C° 0 mm 2 m/s 749 mmHg 85%
03:00 +20°C° 0 mm 2 m/s 749 mmHg 84%
04:00 +21°C° 0 mm 2 m/s 749 mmHg 83%
05:00 +21°C° 0 mm 2 m/s 749 mmHg 82%
06:00 +24°C° 0 mm 3 m/s 749 mmHg 77%
07:00 +25°C° 0 mm 3 m/s 749 mmHg 71%
08:00 +26°C° 0 mm 4 m/s 749 mmHg 65%
09:00 +27°C° 0 mm 4 m/s 749 mmHg 60%
10:00 +28°C° 0 mm 4 m/s 749 mmHg 55%
11:00 +29°C° 0 mm 5 m/s 749 mmHg 50%
12:00 +29°C° 0 mm 5 m/s 750 mmHg 46%
13:00 +30°C° 0 mm 5 m/s 750 mmHg 43%
14:00 +30°C° 0 mm 5 m/s 750 mmHg 39%
15:00 +28°C° 0 mm 5 m/s 750 mmHg 46%
16:00 +26°C° 0 mm 6 m/s 751 mmHg 53%
17:00 +24°C° 0 mm 6 m/s 751 mmHg 60%
18:00 +22°C° 0 mm 5 m/s 752 mmHg 62%
19:00 +20°C° 0 mm 4 m/s 752 mmHg 64%
20:00 +19°C° 0 mm 4 m/s 752 mmHg 66%
21:00 +17°C° 0 mm 4 m/s 753 mmHg 69%
22:00 +14°C° 0 mm 3 m/s 754 mmHg 72%
23:00 +13°C° 0 mm 3 m/s 754 mmHg 75%

24 Juin, Jeudi

Heure Température Précipitation Vent Pression Humidité
00:00 +11°C° 0 mm 3 m/s 754 mmHg 78%
01:00 +10°C° 0 mm 3 m/s 755 mmHg 82%
02:00 +9°C° 0 mm 2 m/s 755 mmHg 86%
03:00 +10°C° 0 mm 2 m/s 755 mmHg 83%
04:00 +10°C° 0 mm 3 m/s 755 mmHg 81%
05:00 +10°C° 0 mm 3 m/s 756 mmHg 78%
06:00 +13°C° 0 mm 2 m/s 756 mmHg 69%
07:00 +15°C° 0 mm 2 m/s 756 mmHg 60%
08:00 +17°C° 0 mm 2 m/s 756 mmHg 51%
09:00 +18°C° 0 mm 2 m/s 756 mmHg 45%
10:00 +20°C° 0 mm 2 m/s 756 mmHg 39%
11:00 +23°C° 0 mm 2 m/s 756 mmHg 33%
12:00 +24°C° 0 mm 2 m/s 756 mmHg 32%
13:00 +25°C° 0 mm 1 m/s 756 mmHg 30%
14:00 +26°C° 0 mm 1 m/s 756 mmHg 29%
15:00 +26°C° 0 mm 1 m/s 755 mmHg 29%
16:00 +26°C° 0 mm 1 m/s 755 mmHg 29%
17:00 +26°C° 0 mm 1 m/s 755 mmHg 30%
18:00 +24°C° 0 mm 1 m/s 755 mmHg 37%
19:00 +23°C° 0 mm 1 m/s 755 mmHg 44%
20:00 +22°C° 0 mm 1 m/s 754 mmHg 51%
21:00 +20°C° 0 mm 1 m/s 755 mmHg 52%
22:00 +19°C° 0 mm 1 m/s 755 mmHg 53%
23:00 +16°C° 0 mm 1 m/s 755 mmHg 55%

25 Juin, Vendredi

Heure Température Précipitation Vent Pression Humidité
00:00 +16°C° 0 mm 1 m/s 755 mmHg 57%
01:00 +15°C° 0 mm 1 m/s 755 mmHg 60%
02:00 +14°C° 0 mm 1 m/s 754 mmHg 63%
03:00 +15°C° 0 mm 1 m/s 754 mmHg 63%
04:00 +15°C° 0 mm 1 m/s 754 mmHg 63%
05:00 +16°C° 0 mm 1 m/s 754 mmHg 64%
06:00 +19°C° 0 mm 1 m/s 754 mmHg 58%
07:00 +20°C° 0 mm 2 m/s 754 mmHg 52%
08:00 +23°C° 0 mm 2 m/s 754 mmHg 47%
09:00 +24°C° 0 mm 2 m/s 754 mmHg 43%
10:00 +26°C° 0 mm 2 m/s 754 mmHg 39%
11:00 +27°C° 0 mm 2 m/s 754 mmHg 35%
12:00 +28°C° 0 mm 2 m/s 753 mmHg 35%
13:00 +29°C° 0 mm 2 m/s 753 mmHg 34%
14:00 +29°C° 0 mm 2 m/s 753 mmHg 34%
15:00 +30°C° 0 mm 2 m/s 752 mmHg 36%
16:00 +30°C° 0 mm 2 m/s 752 mmHg 37%
17:00 +30°C° 0 mm 2 m/s 752 mmHg 38%
18:00 +28°C° 0 mm 2 m/s 752 mmHg 45%
19:00 +27°C° 0 mm 2 m/s 751 mmHg 52%
20:00 +26°C° 0 mm 2 m/s 751 mmHg 59%
21:00 +24°C° 0.1 mm 2 m/s 751 mmHg 65%
22:00 +23°C° 0.1 mm 2 m/s 751 mmHg 72%
23:00 +20°C° 0.1 mm 2 m/s 751 mmHg 78%
Voir plus

Nous avons besoin de votre consentement

Meteoprog et ses fournisseurs de services peuvent stocker et accéder à des données personnelles telles que des cookies, des identifiants d'appareils ou d'autres technologies similaires sur votre appareil et traiter ces données pour personnaliser le contenu et les publicités, ainsi que pour fournir des fonctionnalités de médias sociaux et analyser le trafic.

  • Stocker et/ou accéder à des informations sur votre appareil

    Des cookies, des identifiants d'appareils ou d'autres informations peuvent être stockés ou accessibles sur votre appareil aux fins indiquées ci-dessus.

  • Annonces et contenus personnalisés, mesure des annonces et des contenus, connaissance de l'audience et développement de produits

    Les annonces et le contenu peuvent être personnalisés en fonction d'un profil. D'autres données peuvent être ajoutées pour mieux personnaliser les annonces et le contenu. Les performances des publicités et du contenu peuvent être mesurées. Il est possible d'obtenir des informations sur le public qui a vu les publicités et le contenu. Ces données peuvent être utilisées pour développer ou améliorer l'expérience de l'utilisateur, les systèmes et les logiciels.

En cliquant sur "J'accepte", vous autorisez l'utilisation de cookies, des identifiants d'appareils, des balises web ou d'autres technologies similaires. Vos paramètres peuvent être modifiés dans le navigateur de votre appareil.

Dans certains cas, des intérêts légitimes peuvent être invoqués plutôt qu'un consentement. Vous pouvez en savoir plus à ce sujet dans notre Politique de confidentialité et de cookies.